Time,TemperatureF,DewpointF,PressureIn,WindDirection,WindDirectionDegrees,WindSpeedMPH,WindSpeedGustMPH,Humidity,HourlyPrecipIn,Conditions,Clouds,dailyrainin,SoftwareType,DateUTC
2013-12-28 00:03:00,25.7,24.0,28.98,South,180,3.5,3.5,93,0.00,RA,,0.00,WeatherDisplay:10.37,2013-12-28 06:03:00,
2013-12-28 00:08:00,24.3,23.3,28.97,SE,135,3.5,3.5,96,0.00,RA,,0.00,WeatherDisplay:10.37,2013-12-28 06:08:00,
2013-12-28 00:13:00,24.8,23.3,28.98,South,180,3.5,3.5,94,0.00,CLR,,0.00,WeatherDisplay:10.37,2013-12-28 06:13:00,
2013-12-28 00:18:00,25.0,23.5,28.97,SE,135,2.3,2.3,94,0.00,CLR,,0.00,WeatherDisplay:10.37,2013-12-28 06:18:00,
2013-12-28 00:23:00,25.3,23.6,28.98,West,270,2.3,2.3,93,0.00,CLR,,0.00,WeatherDisplay:10.37,2013-12-28 06:23:00,
2013-12-28 00:28:00,25.5,23.8,28.98,West,270,2.3,2.3,93,0.00,CLR,,0.00,WeatherDisplay:10.37,2013-12-28 06:28:00,
2013-12-28 00:33:00,25.3,23.6,28.98,SW,225,3.5,3.5,93,0.00,CLR,,0.00,WeatherDisplay:10.37,2013-12-28 06:33:00,
2013-12-28 00:38:00,25.3,23.6,28.99,West,270,2.3,2.3,93,0.00,CLR,,0.00,WeatherDisplay:10.37,2013-12-28 06:38:00,
2013-12-28 00:43:00,25.5,23.8,28.99,West,270,2.3,2.3,93,0.00,CLR,,0.00,WeatherDisplay:10.37,2013-12-28 06:43:00,
2013-12-28 00:48:00,25.7,24.0,28.99,West,270,1.1,0.0,93,0.00,CLR,,0.00,WeatherDisplay:10.37,2013-12-28 06:48:00,
2013-12-28 00:53:00,25.3,23.6,28.99,West,270,1.1,0.0,93,0.00,CLR,,0.00,WeatherDisplay:10.37,2013-12-28 06:53:00,
2013-12-28 00:58:00,25.3,23.6,28.98,SE,135,1.1,1.1,93,0.00,CLR,,0.00,WeatherDisplay:10.37,2013-12-28 06:58:00,
2013-12-28 01:03:00,25.3,23.6,28.99,South,180,3.5,3.5,93,0.00,CLR,,0.00,WeatherDisplay:10.37,2013-12-28 07:03:00,
2013-12-28 01:08:00,25.5,23.3,28.99,SW,225,1.6,0.0,91,0.00,CLR,,0.00,WeatherDisplay:10.37,2013-12-28 07:08:00,
2013-12-28 01:13:00,25.7,23.2,28.99,SW,225,1.1,1.1,90,0.00,CLR,,0.00,WeatherDisplay:10.37,2013-12-28 07:13:00,
2013-12-28 01:18:00,25.9,22.8,28.99,South,180,3.5,3.5,88,0.00,CLR,,0.00,WeatherDisplay:10.37,2013-12-28 07:18:00,
2013-12-28 01:23:00,25.5,22.2,29.00,South,180,1.1,0.0,87,0.00,CLR,,0.00,WeatherDisplay:10.37,2013-12-28 07:23:00,
2013-12-28 01:28:00,25.2,22.1,28.99,South,180,1.1,0.0,88,0.00,CLR,,0.00,WeatherDisplay:10.37,2013-12-28 07:28:00,
2013-12-28 01:33:00,25.0,21.9,29.00,East,90,1.1,0.0,88,0.00,CLR,,0.00,WeatherDisplay:10.37,2013-12-28 07:33:00,
2013-12-28 01:38:00,24.8,22.0,29.00,East,90,1.1,0.0,89,0.00,CLR,,0.00,WeatherDisplay:10.37,2013-12-28 07:38:00,
2013-12-28 01:43:00,24.6,21.8,29.00,East,90,1.1,0.0,89,0.00,CLR,,0.00,WeatherDisplay:10.37,2013-12-28 07:43:00,
2013-12-28 01:48:00,24.8,22.0,28.99,East,90,1.1,0.0,89,0.00,CLR,,0.00,WeatherDisplay:10.37,2013-12-28 07:48:00,
2013-12-28 01:53:00,23.9,22.4,28.99,SE,135,3.5,3.5,94,0.00,CLR,,0.00,WeatherDisplay:10.37,2013-12-28 07:53:00,
2013-12-28 01:58:00,21.7,20.5,28.99,SE,135,3.5,3.5,95,0.00,CLR,,0.00,WeatherDisplay:10.37,2013-12-28 07:58:00,
2013-12-28 02:03:00,21.9,20.5,28.98,SE,135,2.3,2.3,94,0.00,CLR,,0.00,WeatherDisplay:10.37,2013-12-28 08:03:00,
2013-12-28 02:08:00,21.9,20.2,28.98,SE,135,2.3,2.3,93,0.00,CLR,,0.00,WeatherDisplay:10.37,2013-12-28 08:08:00,
2013-12-28 02:13:00,21.6,20.4,28.98,SE,135,3.5,3.5,95,0.00,CLR,,0.00,WeatherDisplay:10.37,2013-12-28 08:13:00,
2013-12-28 02:18:00,21.2,19.7,28.98,East,90,1.1,1.1,94,0.00,CLR,,0.00,WeatherDisplay:10.37,2013-12-28 08:18:00,
2013-12-28 02:23:00,21.2,19.7,28.98,East,90,1.1,0.0,94,0.00,CLR,,0.00,WeatherDisplay:10.37,2013-12-28 08:23:00,
2013-12-28 02:28:00,21.2,19.7,28.98,SE,135,1.1,1.1,94,0.00,CLR,,0.00,WeatherDisplay:10.37,2013-12-28 08:28:00,
2013-12-28 02:33:00,20.7,19.2,28.98,SE,135,1.1,1.1,94,0.00,CLR,,0.00,WeatherDisplay:10.37,2013-12-28 08:33:00,
2013-12-28 02:38:00,20.7,19.5,28.98,South,180,2.3,2.3,95,0.00,CLR,,0.00,WeatherDisplay:10.37,2013-12-28 08:38:00,
2013-12-28 02:43:00,19.8,18.6,28.98,East,90,2.3,2.3,95,0.00,CLR,,0.00,WeatherDisplay:10.37,2013-12-28 08:43:00,
2013-12-28 02:48:00,20.5,19.0,28.98,SE,135,2.3,2.3,94,0.00,CLR,,0.00,WeatherDisplay:10.37,2013-12-28 08:48:00,
2013-12-28 02:53:00,21.0,19.6,28.98,SE,135,2.3,2.3,94,0.00,CLR,,0.00,WeatherDisplay:10.37,2013-12-28 08:53:00,
2013-12-28 02:58:00,20.3,19.1,28.98,South,180,3.5,3.5,95,0.00,CLR,,0.00,WeatherDisplay:10.37,2013-12-28 08:58:00,
2013-12-28 03:03:00,20.1,18.9,28.98,SE,135,2.3,2.3,95,0.00,CLR,,0.00,WeatherDisplay:10.37,2013-12-28 09:03:00,
2013-12-28 03:08:00,19.8,18.6,28.98,SE,135,2.3,2.3,95,0.00,CLR,,0.00,WeatherDisplay:10.37,2013-12-28 09:08:00,
2013-12-28 03:13:00,19.8,18.6,28.98,East,90,1.1,1.1,95,0.00,CLR,,0.00,WeatherDisplay:10.37,2013-12-28 09:13:00,
2013-12-28 03:18:00,20.3,19.1,28.98,East,90,1.1,0.0,95,0.00,CLR,,0.00,WeatherDisplay:10.37,2013-12-28 09:18:00,
2013-12-28 03:23:00,20.7,19.2,28.98,NE,45,1.1,1.1,94,0.00,CLR,,0.00,WeatherDisplay:10.37,2013-12-28 09:23:00,
2013-12-28 03:28:00,20.3,18.8,28.97,North,0,1.6,0.0,94,0.00,CLR,,0.00,WeatherDisplay:10.37,2013-12-28 09:28:00,
2013-12-28 03:33:00,19.9,18.5,28.97,North,0,1.1,0.0,94,0.00,CLR,,0.00,WeatherDisplay:10.37,2013-12-28 09:33:00,
2013-12-28 03:38:00,19.6,18.1,28.96,North,0,0.0,0.0,94,0.00,CLR,,0.00,WeatherDisplay:10.37,2013-12-28 09:38:00,
2013-12-28 03:43:00,19.4,18.0,28.96,North,0,1.1,0.0,94,0.00,CLR,,0.00,WeatherDisplay:10.37,2013-12-28 09:43:00,
2013-12-28 03:48:00,19.0,17.6,28.95,North,0,1.1,0.0,94,0.00,CLR,,0.00,WeatherDisplay:10.37,2013-12-28 09:48:00,
2013-12-28 03:53:00,18.7,17.2,28.95,North,0,1.1,0.0,94,0.00,CLR,,0.00,WeatherDisplay:10.37,2013-12-28 09:53:00,
2013-12-28 03:58:00,18.3,16.9,28.95,North,0,1.1,1.1,94,0.00,CLR,,0.00,WeatherDisplay:10.37,2013-12-28 09:58:00,
2013-12-28 04:03:00,18.3,16.9,28.95,North,0,1.1,0.0,94,0.00,CLR,,0.00,WeatherDisplay:10.37,2013-12-28 10:03:00,
2013-12-28 04:08:00,18.5,17.3,28.95,SW,225,1.1,0.0,95,0.00,CLR,,0.00,WeatherDisplay:10.37,2013-12-28 10:08:00,
2013-12-28 04:13:00,18.7,17.5,28.95,SW,225,0.0,0.0,95,0.00,CLR,,0.00,WeatherDisplay:10.37,2013-12-28 10:13:00,
2013-12-28 04:18:00,18.3,16.9,28.95,SW,225,0.0,0.0,94,0.00,CLR,,0.00,WeatherDisplay:10.37,2013-12-28 10:18:00,
2013-12-28 04:23:00,18.3,16.9,28.95,SW,225,0.0,0.0,94,0.00,CLR,,0.00,WeatherDisplay:10.37,2013-12-28 10:23:00,
2013-12-28 04:28:00,17.6,16.4,28.94,NE,45,1.1,0.0,95,0.00,CLR,,0.00,WeatherDisplay:10.37,2013-12-28 10:28:00,
2013-12-28 04:33:00,17.6,16.4,28.95,NE,45,1.1,0.0,95,0.00,CLR,,0.00,WeatherDisplay:10.37,2013-12-28 10:33:00,
2013-12-28 04:38:00,17.4,16.2,28.95,North,0,1.1,0.0,95,0.00,CLR,,0.00,WeatherDisplay:10.37,2013-12-28 10:38:00,
2013-12-28 04:43:00,17.4,16.2,28.95,North,0,1.1,1.1,95,0.00,CLR,,0.00,WeatherDisplay:10.37,2013-12-28 10:43:00,
2013-12-28 04:48:00,18.0,16.8,28.95,NE,45,0.0,0.0,95,0.00,CLR,,0.00,WeatherDisplay:10.37,2013-12-28 10:48:00,
2013-12-28 04:53:00,18.1,16.9,28.95,North,0,1.1,0.0,95,0.00,CLR,,0.00,WeatherDisplay:10.37,2013-12-28 10:53:00,
2013-12-28 04:58:00,18.3,17.1,28.95,North,0,1.1,0.0,95,0.00,CLR,,0.00,WeatherDisplay:10.37,2013-12-28 10:58:00,
2013-12-28 05:02:00,18.1,16.9,28.95,NW,315,1.1,0.0,95,0.00,CLR,,0.00,WeatherDisplay:10.37,2013-12-28 11:02:00,
2013-12-28 05:07:00,17.8,16.6,28.94,NE,45,2.3,2.3,95,0.00,CLR,,0.00,WeatherDisplay:10.37,2013-12-28 11:07:00,
2013-12-28 05:12:00,17.6,16.4,28.94,North,0,1.1,1.1,95,0.00,CLR,,0.00,WeatherDisplay:10.37,2013-12-28 11:12:00,
2013-12-28 05:17:00,17.4,16.2,28.94,North,0,1.1,1.1,95,0.00,CLR,,0.00,WeatherDisplay:10.37,2013-12-28 11:17:00,
2013-12-28 05:22:00,17.4,16.2,28.94,North,0,1.1,1.1,95,0.00,CLR,,0.00,WeatherDisplay:10.37,2013-12-28 11:22:00,
2013-12-28 05:27:00,17.2,16.1,28.94,North,0,1.1,0.0,95,0.00,CLR,,0.00,WeatherDisplay:10.37,2013-12-28 11:27:00,
2013-12-28 05:32:00,17.1,15.9,28.93,North,0,1.1,0.0,95,0.00,CLR,,0.00,WeatherDisplay:10.37,2013-12-28 11:32:00,
2013-12-28 05:37:00,16.9,15.7,28.94,North,0,1.6,1.6,95,0.00,CLR,,0.00,WeatherDisplay:10.37,2013-12-28 11:37:00,
2013-12-28 05:42:00,17.2,16.3,28.94,North,0,1.1,0.0,96,0.00,CLR,,0.00,WeatherDisplay:10.37,2013-12-28 11:42:00,
2013-12-28 05:47:00,17.4,16.5,28.94,North,0,0.0,0.0,96,0.00,CLR,,0.00,WeatherDisplay:10.37,2013-12-28 11:47:00,
2013-12-28 05:52:00,17.4,16.5,28.93,North,0,2.3,2.3,96,0.00,CLR,,0.00,WeatherDisplay:10.37,2013-12-28 11:52:00,
2013-12-28 05:57:00,17.4,16.5,28.93,SE,135,1.1,0.0,96,0.00,CLR,,0.00,WeatherDisplay:10.37,2013-12-28 11:57:00,
2013-12-28 06:02:00,17.2,16.3,28.93,SE,135,1.1,0.0,96,0.00,CLR,,0.00,WeatherDisplay:10.37,2013-12-28 12:02:00,
2013-12-28 06:07:00,17.2,16.3,28.92,SE,135,1.1,0.0,96,0.00,CLR,,0.00,WeatherDisplay:10.37,2013-12-28 12:07:00,
2013-12-28 06:12:00,16.7,15.8,28.92,North,0,1.1,0.0,96,0.00,CLR,,0.00,WeatherDisplay:10.37,2013-12-28 12:12:00,
2013-12-28 06:17:00,16.7,15.8,28.91,North,0,2.3,2.3,96,0.00,CLR,,0.00,WeatherDisplay:10.37,2013-12-28 12:17:00,
2013-12-28 06:22:00,16.9,15.9,28.91,NE,45,2.3,2.3,96,0.00,CLR,,0.00,WeatherDisplay:10.37,2013-12-28 12:22:00,
2013-12-28 06:27:00,16.9,15.9,28.91,East,90,0.7,0.0,96,0.00,CLR,,0.00,WeatherDisplay:10.37,2013-12-28 12:27:00,
2013-12-28 06:32:00,16.9,15.9,28.91,NW,315,1.1,1.1,96,0.00,CLR,,0.00,WeatherDisplay:10.37,2013-12-28 12:32:00,
2013-12-28 06:37:00,16.7,15.8,28.91,NW,315,1.1,1.1,96,0.00,CLR,,0.00,WeatherDisplay:10.37,2013-12-28 12:37:00,
2013-12-28 06:42:00,16.5,15.6,28.91,NW,315,1.1,0.0,96,0.00,CLR,,0.00,WeatherDisplay:10.37,2013-12-28 12:42:00,
2013-12-28 06:47:00,16.5,15.6,28.92,NW,315,1.1,0.0,96,0.00,CLR,,0.00,WeatherDisplay:10.37,2013-12-28 12:47:00,
2013-12-28 06:52:00,16.3,15.4,28.92,NW,315,1.1,1.1,96,0.00,CLR,,0.00,WeatherDisplay:10.37,2013-12-28 12:52:00,
2013-12-28 06:57:00,16.2,15.2,28.91,North,0,1.1,1.1,96,0.00,CLR,,0.00,WeatherDisplay:10.37,2013-12-28 12:57:00,
2013-12-28 07:02:00,16.2,15.2,28.91,NW,315,1.1,0.0,96,0.00,CLR,,0.00,WeatherDisplay:10.37,2013-12-28 13:02:00,
2013-12-28 07:07:00,16.2,15.2,28.92,NW,315,1.1,0.0,96,0.00,CLR,,0.00,WeatherDisplay:10.37,2013-12-28 13:07:00,
2013-12-28 07:12:00,16.2,15.2,28.92,NW,315,2.3,2.3,96,0.00,CLR,,0.00,WeatherDisplay:10.37,2013-12-28 13:12:00,
2013-12-28 07:17:00,16.7,15.8,28.92,North,0,1.1,1.1,96,0.00,CLR,,0.00,WeatherDisplay:10.37,2013-12-28 13:17:00,
2013-12-28 07:22:00,16.7,15.8,28.92,North,0,1.1,1.1,96,0.00,CLR,,0.00,WeatherDisplay:10.37,2013-12-28 13:22:00,
2013-12-28 07:27:00,16.9,15.9,28.92,North,0,1.1,1.1,96,0.00,CLR,,0.00,WeatherDisplay:10.37,2013-12-28 13:27:00,
2013-12-28 07:32:00,17.1,16.1,28.91,North,0,1.1,1.1,96,0.00,CLR,,0.00,WeatherDisplay:10.37,2013-12-28 13:32:00,
2013-12-28 07:37:00,17.4,16.5,28.91,North,0,3.5,3.5,96,0.00,CLR,,0.00,WeatherDisplay:10.37,2013-12-28 13:37:00,
2013-12-28 07:42:00,17.4,16.5,28.91,North,0,1.1,1.1,96,0.00,CLR,,0.00,WeatherDisplay:10.37,2013-12-28 13:42:00,
2013-12-28 07:47:00,17.4,16.5,28.91,NE,45,2.3,2.3,96,0.00,CLR,,0.00,WeatherDisplay:10.37,2013-12-28 13:47:00,
2013-12-28 07:52:00,17.2,16.3,28.91,NE,45,1.1,0.0,96,0.00,CLR,,0.00,WeatherDisplay:10.37,2013-12-28 13:52:00,
2013-12-28 07:57:00,17.2,16.3,28.91,East,90,1.1,0.0,96,0.00,CLR,,0.00,WeatherDisplay:10.37,2013-12-28 13:57:00,
2013-12-28 08:02:00,17.1,16.1,28.91,SE,135,1.1,1.1,96,0.00,CLR,,0.00,WeatherDisplay:10.37,2013-12-28 14:02:00,
2013-12-28 08:07:00,16.5,15.6,28.91,SE,135,1.1,0.0,96,0.00,CLR,,0.00,WeatherDisplay:10.37,2013-12-28 14:07:00,
2013-12-28 08:12:00,16.5,15.6,28.90,SE,135,0.0,0.0,96,0.00,CLR,,0.00,WeatherDisplay:10.37,2013-12-28 14:12:00,
2013-12-28 08:17:00,16.7,15.8,28.90,SE,135,1.1,0.0,96,0.00,CLR,,0.00,WeatherDisplay:10.37,2013-12-28 14:17:00,
2013-12-28 08:22:00,16.3,15.4,28.90,SE,135,1.1,1.1,96,0.00,CLR,,0.00,WeatherDisplay:10.37,2013-12-28 14:22:00,
2013-12-28 08:27:00,16.2,15.2,28.90,SE,135,1.1,1.1,96,0.00,CLR,,0.00,WeatherDisplay:10.37,2013-12-28 14:27:00,
2013-12-28 08:32:00,16.5,15.6,28.90,SE,135,1.1,0.0,96,0.00,CLR,,0.00,WeatherDisplay:10.37,2013-12-28 14:32:00,
2013-12-28 08:37:00,16.9,15.9,28.89,SE,135,1.1,0.0,96,0.00,CLR,,0.00,WeatherDisplay:10.37,2013-12-28 14:37:00,
2013-12-28 08:42:00,17.4,16.5,28.89,East,90,1.1,0.0,96,0.00,CLR,,0.00,WeatherDisplay:10.37,2013-12-28 14:42:00,
2013-12-28 08:47:00,18.9,17.9,28.89,SE,135,2.3,2.3,96,0.00,CLR,,0.00,WeatherDisplay:10.37,2013-12-28 14:47:00,
2013-12-28 08:52:00,19.9,19.0,28.89,SE,135,1.1,0.0,96,0.00,CLR,,0.00,WeatherDisplay:10.37,2013-12-28 14:52:00,
2013-12-28 08:57:00,22.6,21.2,28.89,SE,135,1.1,1.1,94,0.00,CLR,,0.00,WeatherDisplay:10.37,2013-12-28 14:57:00,
2013-12-28 09:02:00,23.4,22.1,28.89,South,180,1.1,0.0,95,0.00,CLR,,0.00,WeatherDisplay:10.37,2013-12-28 15:02:00,
2013-12-28 09:07:00,23.2,22.0,28.89,SE,135,1.1,1.1,95,0.00,CLR,,0.00,WeatherDisplay:10.37,2013-12-28 15:07:00,
2013-12-28 09:12:00,23.4,22.1,28.89,East,90,1.1,0.0,95,0.00,CLR,,0.00,WeatherDisplay:10.37,2013-12-28 15:12:00,
2013-12-28 09:17:00,23.5,22.3,28.89,SE,135,1.1,0.0,95,0.00,CLR,,0.00,WeatherDisplay:10.37,2013-12-28 15:17:00,
2013-12-28 09:22:00,24.6,22.9,28.89,NE,45,1.1,0.0,93,0.00,CLR,,0.00,WeatherDisplay:10.37,2013-12-28 15:22:00,
2013-12-28 09:27:00,25.3,23.6,28.89,ESE,112,1.1,0.0,93,0.00,CLR,,0.00,WeatherDisplay:10.37,2013-12-28 15:27:00,
2013-12-28 09:32:00,25.7,23.7,28.89,North,0,1.1,0.0,92,0.00,CLR,,0.00,WeatherDisplay:10.37,2013-12-28 15:32:00,
2013-12-28 09:37:00,26.1,23.8,28.88,North,0,0.0,0.0,91,0.00,CLR,,0.00,WeatherDisplay:10.37,2013-12-28 15:37:00,
2013-12-28 09:42:00,26.6,24.3,28.88,NW,315,1.1,0.0,91,0.00,CLR,,0.00,WeatherDisplay:10.37,2013-12-28 15:42:00,
2013-12-28 09:47:00,27.0,24.7,28.88,North,0,1.1,1.1,91,0.00,CLR,,0.00,WeatherDisplay:10.37,2013-12-28 15:47:00,
2013-12-28 09:52:00,29.3,26.7,28.88,North,0,0.0,0.0,90,0.00,CLR,,0.00,WeatherDisplay:10.37,2013-12-28 15:52:00,
2013-12-28 09:57:00,31.1,28.5,28.87,South,180,1.1,1.1,90,0.00,CLR,,0.00,WeatherDisplay:10.37,2013-12-28 15:57:00,
2013-12-28 10:02:00,30.9,28.9,28.87,South,180,1.1,1.1,92,0.00,CLR,,0.00,WeatherDisplay:10.37,2013-12-28 16:02:00,
2013-12-28 10:07:00,30.9,29.1,28.87,SSE,158,1.6,0.0,93,0.00,CLR,,0.00,WeatherDisplay:10.37,2013-12-28 16:07:00,
2013-12-28 10:12:00,30.9,29.1,28.87,South,180,1.1,1.1,93,0.00,CLR,,0.00,WeatherDisplay:10.37,2013-12-28 16:12:00,
2013-12-28 10:17:00,29.7,26.8,28.87,SE,135,3.5,3.5,89,0.00,CLR,,0.00,WeatherDisplay:10.37,2013-12-28 16:17:00,
2013-12-28 10:22:00,27.1,23.5,28.85,SE,135,3.5,3.5,86,0.00,CLR,,0.00,WeatherDisplay:10.37,2013-12-28 16:22:00,
2013-12-28 10:27:00,25.7,22.6,28.85,SE,135,4.6,4.6,88,0.00,CLR,,0.00,WeatherDisplay:10.37,2013-12-28 16:27:00,
2013-12-28 10:32:00,25.5,22.7,28.85,SE,135,2.3,2.3,89,0.00,CLR,,0.00,WeatherDisplay:10.37,2013-12-28 16:32:00,
2013-12-28 10:37:00,26.6,24.1,28.85,SE,135,4.6,4.6,90,0.00,CLR,,0.00,WeatherDisplay:10.37,2013-12-28 16:37:00,
2013-12-28 10:42:00,27.5,25.0,28.85,SE,135,1.1,1.1,90,0.00,CLR,,0.00,WeatherDisplay:10.37,2013-12-28 16:42:00,
2013-12-28 10:47:00,29.3,26.7,28.85,SE,135,1.1,1.1,90,0.00,CLR,,0.00,WeatherDisplay:10.37,2013-12-28 16:47:00,
2013-12-28 10:52:00,32.2,29.6,28.84,SE,135,1.1,0.0,90,0.00,CLR,,0.00,WeatherDisplay:10.37,2013-12-28 16:52:00,
2013-12-28 10:57:00,35.4,32.8,28.84,SE,135,1.1,0.0,90,0.00,CLR,,0.00,WeatherDisplay:10.37,2013-12-28 16:57:00,
2013-12-28 11:02:00,37.0,32.4,28.84,South,180,1.1,1.1,83,0.00,CLR,,0.00,WeatherDisplay:10.37,2013-12-28 17:02:00,
2013-12-28 11:07:00,37.9,32.6,28.83,SE,135,1.1,0.0,81,0.00,CLR,,0.00,WeatherDisplay:10.37,2013-12-28 17:07:00,
2013-12-28 11:12:00,40.6,35.3,28.83,SE,135,0.0,0.0,81,0.00,CLR,,0.00,WeatherDisplay:10.37,2013-12-28 17:12:00,
2013-12-28 11:17:00,42.3,35.6,28.82,East,90,1.1,0.0,77,0.00,CLR,,0.00,WeatherDisplay:10.37,2013-12-28 17:17:00,
2013-12-28 11:22:00,42.6,33.5,28.82,SE,135,2.3,0.0,70,0.00,CLR,,0.00,WeatherDisplay:10.37,2013-12-28 17:22:00,
2013-12-28 11:27:00,43.0,33.9,28.82,East,90,1.1,0.0,70,0.00,CLR,,0.00,WeatherDisplay:10.37,2013-12-28 17:27:00,
2013-12-28 11:32:00,42.8,32.2,28.82,SE,135,2.3,2.3,66,0.00,CLR,,0.00,WeatherDisplay:10.37,2013-12-28 17:32:00,
2013-12-28 11:37:00,42.6,32.4,28.81,ESE,112,1.1,0.0,67,0.00,CLR,,0.00,WeatherDisplay:10.37,2013-12-28 17:37:00,
2013-12-28 11:42:00,42.4,31.9,28.81,SE,135,2.3,2.3,66,0.00,CLR,,0.00,WeatherDisplay:10.37,2013-12-28 17:42:00,
2013-12-28 11:47:00,41.4,31.2,28.81,East,90,3.5,3.5,67,0.00,CLR,,0.00,WeatherDisplay:10.37,2013-12-28 17:47:00,
2013-12-28 11:52:00,40.8,31.4,28.81,SE,135,2.3,2.3,69,0.00,CLR,,0.00,WeatherDisplay:10.37,2013-12-28 17:52:00,
2013-12-28 11:57:00,40.6,31.3,28.80,SE,135,3.5,3.5,69,0.00,CLR,,0.00,WeatherDisplay:10.37,2013-12-28 17:57:00,
2013-12-28 12:02:00,41.0,31.6,28.80,East,90,2.3,2.3,69,0.01,RA,,0.01,WeatherDisplay:10.37,2013-12-28 18:02:00,
2013-12-28 12:07:00,41.7,31.6,28.80,SE,135,3.5,3.5,67,0.01,RA,,0.01,WeatherDisplay:10.37,2013-12-28 18:07:00,
2013-12-28 12:12:00,41.9,31.7,28.79,SE,135,3.5,3.5,67,0.01,CLR,,0.01,WeatherDisplay:10.37,2013-12-28 18:12:00,
2013-12-28 12:17:00,42.4,31.9,28.79,SE,135,3.5,3.5,66,0.01,CLR,,0.01,WeatherDisplay:10.37,2013-12-28 18:17:00,
2013-12-28 12:22:00,42.8,31.8,28.78,SE,135,3.5,3.5,65,0.01,CLR,,0.01,WeatherDisplay:10.37,2013-12-28 18:22:00,
2013-12-28 12:27:00,42.1,31.9,28.77,SE,135,3.5,3.5,67,0.01,CLR,,0.01,WeatherDisplay:10.37,2013-12-28 18:27:00,
2013-12-28 12:32:00,42.3,31.7,28.77,SE,135,4.6,4.6,66,0.01,CLR,,0.01,WeatherDisplay:10.37,2013-12-28 18:32:00,
2013-12-28 12:37:00,41.9,31.7,28.77,SE,135,3.5,3.5,67,0.01,CLR,,0.01,WeatherDisplay:10.37,2013-12-28 18:37:00,
2013-12-28 12:42:00,42.1,31.5,28.77,SE,135,3.5,3.5,66,0.01,CLR,,0.01,WeatherDisplay:10.37,2013-12-28 18:42:00,
2013-12-28 12:47:00,42.1,31.5,28.76,SE,135,4.6,4.6,66,0.01,CLR,,0.01,WeatherDisplay:10.37,2013-12-28 18:47:00,
2013-12-28 12:52:00,42.3,31.7,28.76,SE,135,3.5,3.5,66,0.01,CLR,,0.01,WeatherDisplay:10.37,2013-12-28 18:52:00,
2013-12-28 12:57:00,42.8,31.8,28.75,SE,135,3.5,3.5,65,0.01,CLR,,0.01,WeatherDisplay:10.37,2013-12-28 18:57:00,
2013-12-28 13:02:00,43.7,31.9,28.75,SE,135,3.5,3.5,63,0.00,CLR,,0.01,WeatherDisplay:10.37,2013-12-28 19:02:00,
2013-12-28 13:07:00,43.2,31.8,28.75,SE,135,3.5,3.5,64,0.00,CLR,,0.01,WeatherDisplay:10.37,2013-12-28 19:07:00,
2013-12-28 13:12:00,43.3,31.6,28.75,SE,135,4.6,4.6,63,0.00,CLR,,0.01,WeatherDisplay:10.37,2013-12-28 19:12:00,
2013-12-28 13:17:00,43.0,31.6,28.74,SE,135,4.6,4.6,64,0.00,CLR,,0.01,WeatherDisplay:10.37,2013-12-28 19:17:00,
2013-12-28 13:22:00,42.4,31.1,28.74,SE,135,5.8,5.8,64,0.00,CLR,,0.01,WeatherDisplay:10.37,2013-12-28 19:22:00,
2013-12-28 13:27:00,42.3,30.9,28.73,SE,135,5.8,5.8,64,0.00,CLR,,0.01,WeatherDisplay:10.37,2013-12-28 19:27:00,
2013-12-28 13:32:00,42.3,30.9,28.73,SE,135,4.6,4.6,64,0.01,RA,,0.02,WeatherDisplay:10.37,2013-12-28 19:32:00,
2013-12-28 13:37:00,42.8,31.1,28.72,SE,135,4.6,4.6,63,0.01,RA,,0.02,WeatherDisplay:10.37,2013-12-28 19:37:00,
2013-12-28 13:42:00,42.6,30.9,28.72,SE,135,5.8,5.8,63,0.01,,,0.02,WeatherDisplay:10.37,2013-12-28 19:42:00,
2013-12-28 13:47:00,41.2,30.7,28.72,SE,135,8.1,8.1,66,0.01,CLR,,0.02,WeatherDisplay:10.37,2013-12-28 19:47:00,
2013-12-28 13:52:00,40.5,30.7,28.72,SE,135,6.9,6.9,68,0.01,CLR,,0.02,WeatherDisplay:10.37,2013-12-28 19:52:00,
2013-12-28 13:57:00,41.5,31.4,28.72,SE,135,8.1,8.1,67,0.01,CLR,,0.02,WeatherDisplay:10.37,2013-12-28 19:57:00,
2013-12-28 14:02:00,42.1,31.2,28.71,SE,135,6.9,6.9,65,0.01,CLR,,0.02,WeatherDisplay:10.37,2013-12-28 20:02:00,
2013-12-28 14:07:00,41.0,31.2,28.71,SE,135,5.8,5.8,68,0.01,CLR,,0.02,WeatherDisplay:10.37,2013-12-28 20:07:00,
2013-12-28 14:12:00,41.2,31.4,28.71,SE,135,5.8,5.8,68,0.01,CLR,,0.02,WeatherDisplay:10.37,2013-12-28 20:12:00,
2013-12-28 14:17:00,41.9,31.4,28.71,SE,135,5.8,5.8,66,0.01,CLR,,0.02,WeatherDisplay:10.37,2013-12-28 20:17:00,
2013-12-28 14:22:00,42.8,31.5,28.71,SE,135,5.8,5.8,64,0.01,CLR,,0.02,WeatherDisplay:10.37,2013-12-28 20:22:00,
2013-12-28 14:27:00,42.8,31.1,28.71,SE,135,6.9,6.9,63,0.01,CLR,,0.02,WeatherDisplay:10.37,2013-12-28 20:27:00,
2013-12-28 14:32:00,42.3,30.9,28.71,SE,135,6.9,6.9,64,0.01,RA,,0.04,WeatherDisplay:10.37,2013-12-28 20:32:00,
2013-12-28 14:37:00,41.5,31.0,28.70,South,180,6.9,6.9,66,0.01,RA,,0.04,WeatherDisplay:10.37,2013-12-28 20:37:00,
2013-12-28 14:42:00,40.6,30.5,28.70,SSE,158,6.9,6.9,67,0.01,CLR,,0.04,WeatherDisplay:10.37,2013-12-28 20:42:00,
2013-12-28 14:47:00,39.7,30.4,28.70,South,180,6.9,6.9,69,0.01,CLR,,0.04,WeatherDisplay:10.37,2013-12-28 20:47:00,
2013-12-28 14:52:00,39.7,30.4,28.70,SE,135,4.6,4.6,69,0.01,CLR,,0.04,WeatherDisplay:10.37,2013-12-28 20:52:00,
2013-12-28 14:57:00,40.3,30.6,28.70,SE,135,5.8,5.8,68,0.01,CLR,,0.04,WeatherDisplay:10.37,2013-12-28 20:57:00,
2013-12-28 15:02:00,40.6,30.5,28.70,SE,135,4.6,4.6,67,0.01,CLR,,0.04,WeatherDisplay:10.37,2013-12-28 21:02:00,
2013-12-28 15:07:00,40.6,30.5,28.70,South,180,4.6,4.6,67,0.01,CLR,,0.04,WeatherDisplay:10.37,2013-12-28 21:07:00,
2013-12-28 15:12:00,39.6,29.9,28.70,SE,135,6.9,6.9,68,0.01,CLR,,0.04,WeatherDisplay:10.37,2013-12-28 21:12:00,
2013-12-28 15:17:00,39.4,29.7,28.70,SE,135,4.6,4.6,68,0.01,CLR,,0.04,WeatherDisplay:10.37,2013-12-28 21:17:00,
2013-12-28 15:22:00,38.5,29.2,28.70,SE,135,6.9,6.9,69,0.01,CLR,,0.04,WeatherDisplay:10.37,2013-12-28 21:22:00,
2013-12-28 15:27:00,37.9,29.0,28.70,SE,135,6.9,6.9,70,0.01,CLR,,0.04,WeatherDisplay:10.37,2013-12-28 21:27:00,
2013-12-28 15:32:00,38.5,29.2,28.70,SE,135,4.6,4.6,69,0.00,CLR,,0.04,WeatherDisplay:10.37,2013-12-28 21:32:00,
2013-12-28 15:37:00,39.0,29.7,28.70,SE,135,5.8,5.8,69,0.00,CLR,,0.04,WeatherDisplay:10.37,2013-12-28 21:37:00,
2013-12-28 15:42:00,39.7,30.0,28.71,SSE,158,3.8,3.8,68,0.00,CLR,,0.04,WeatherDisplay:10.37,2013-12-28 21:42:00,
2013-12-28 15:47:00,40.8,30.0,28.70,SE,135,5.8,5.8,65,0.00,CLR,,0.04,WeatherDisplay:10.37,2013-12-28 21:47:00,
2013-12-28 15:52:00,40.8,30.0,28.70,South,180,4.6,4.6,65,0.00,CLR,,0.04,WeatherDisplay:10.37,2013-12-28 21:52:00,
2013-12-28 15:57:00,40.1,29.6,28.70,East,90,4.6,4.6,66,0.00,CLR,,0.04,WeatherDisplay:10.37,2013-12-28 21:57:00,
2013-12-28 16:02:00,40.1,29.6,28.70,SE,135,4.6,4.6,66,0.00,CLR,,0.04,WeatherDisplay:10.37,2013-12-28 22:02:00,
2013-12-28 16:07:00,39.6,29.1,28.71,SE,135,5.8,5.8,66,0.00,CLR,,0.04,WeatherDisplay:10.37,2013-12-28 22:07:00,
2013-12-28 16:12:00,39.6,29.5,28.71,SE,135,2.3,2.3,67,0.00,CLR,,0.04,WeatherDisplay:10.37,2013-12-28 22:12:00,
2013-12-28 16:17:00,38.8,28.8,28.72,East,90,3.5,3.5,67,0.00,CLR,,0.04,WeatherDisplay:10.37,2013-12-28 22:17:00,
2013-12-28 16:22:00,38.1,28.5,28.72,SE,135,3.5,0.0,68,0.00,CLR,,0.04,WeatherDisplay:10.37,2013-12-28 22:22:00,
2013-12-28 16:27:00,37.8,28.5,28.73,South,180,1.1,0.0,69,0.00,CLR,,0.04,WeatherDisplay:10.37,2013-12-28 22:27:00,
2013-12-28 16:32:00,37.6,28.7,28.72,SE,135,1.1,0.0,70,0.00,CLR,,0.04,WeatherDisplay:10.37,2013-12-28 22:32:00,
2013-12-28 16:37:00,37.4,28.5,28.72,SE,135,1.1,0.0,70,0.00,CLR,,0.04,WeatherDisplay:10.37,2013-12-28 22:37:00,
2013-12-28 16:42:00,36.5,27.6,28.71,SE,135,9.2,9.2,70,0.00,CLR,,0.04,WeatherDisplay:10.37,2013-12-28 22:42:00,
2013-12-28 16:47:00,33.3,26.2,28.72,SE,135,9.2,9.2,75,0.00,CLR,,0.04,WeatherDisplay:10.37,2013-12-28 22:47:00,
2013-12-28 16:52:00,33.1,26.7,28.72,SE,135,5.8,5.8,77,0.00,CLR,,0.04,WeatherDisplay:10.37,2013-12-28 22:52:00,
2013-12-28 16:57:00,33.1,26.3,28.72,SE,135,9.8,9.8,76,0.00,CLR,,0.04,WeatherDisplay:10.37,2013-12-28 22:57:00,
2013-12-28 17:02:00,33.1,26.7,28.72,SE,135,5.8,5.8,77,0.00,CLR,,0.04,WeatherDisplay:10.37,2013-12-28 23:02:00,
2013-12-28 17:07:00,33.8,27.0,28.72,SE,135,5.8,5.8,76,0.00,CLR,,0.04,WeatherDisplay:10.37,2013-12-28 23:07:00,
2013-12-28 17:12:00,34.3,26.9,28.72,SE,135,5.8,5.8,74,0.00,CLR,,0.04,WeatherDisplay:10.37,2013-12-28 23:12:00,
2013-12-28 17:17:00,33.8,26.7,28.72,SE,135,6.9,6.9,75,0.00,CLR,,0.04,WeatherDisplay:10.37,2013-12-28 23:17:00,
2013-12-28 17:22:00,33.1,26.3,28.72,SE,135,6.9,6.9,76,0.00,CLR,,0.04,WeatherDisplay:10.37,2013-12-28 23:22:00,
2013-12-28 17:27:00,32.2,26.1,28.72,SE,135,5.8,5.8,78,0.00,CLR,,0.04,WeatherDisplay:10.37,2013-12-28 23:27:00,
2013-12-28 17:32:00,32.9,27.1,28.72,SE,135,5.4,5.4,79,0.00,CLR,,0.04,WeatherDisplay:10.37,2013-12-28 23:32:00,
2013-12-28 17:37:00,32.5,26.4,28.72,SE,135,4.6,4.6,78,0.00,CLR,,0.04,WeatherDisplay:10.37,2013-12-28 23:37:00,
2013-12-28 17:42:00,32.2,26.1,28.72,South,180,3.5,3.5,78,0.00,CLR,,0.04,WeatherDisplay:10.37,2013-12-28 23:42:00,
2013-12-28 17:47:00,32.2,26.4,28.72,NE,45,4.6,4.6,79,0.00,CLR,,0.04,WeatherDisplay:10.37,2013-12-28 23:47:00,
2013-12-28 17:52:00,32.0,26.2,28.73,East,90,3.5,0.0,79,0.00,CLR,,0.04,WeatherDisplay:10.37,2013-12-28 23:52:00,
2013-12-28 17:57:00,31.8,26.4,28.72,East,90,1.1,0.0,80,0.00,CLR,,0.04,WeatherDisplay:10.37,2013-12-28 23:57:00,
2013-12-28 18:02:00,31.6,26.2,28.72,SE,135,1.1,1.1,80,0.00,CLR,,0.04,WeatherDisplay:10.37,2013-12-29 00:02:00,
2013-12-28 18:07:00,31.6,26.2,28.72,SE,135,1.1,0.0,80,0.00,CLR,,0.04,WeatherDisplay:10.37,2013-12-29 00:07:00,
2013-12-28 18:12:00,31.6,26.5,28.73,SE,135,1.1,0.0,81,0.00,CLR,,0.04,WeatherDisplay:10.37,2013-12-29 00:12:00,
2013-12-28 18:17:00,31.5,26.3,28.72,East,90,1.1,1.1,81,0.00,CLR,,0.04,WeatherDisplay:10.37,2013-12-29 00:17:00,
2013-12-28 18:22:00,31.3,26.1,28.72,East,90,1.6,1.6,81,0.00,CLR,,0.04,WeatherDisplay:10.37,2013-12-29 00:22:00,
2013-12-28 18:27:00,31.1,26.0,28.72,East,90,1.1,1.1,81,0.00,CLR,,0.04,WeatherDisplay:10.37,2013-12-29 00:27:00,
2013-12-28 18:32:00,30.9,26.1,28.72,East,90,1.1,1.1,82,0.00,CLR,,0.04,WeatherDisplay:10.37,2013-12-29 00:32:00,
2013-12-28 18:37:00,30.6,26.0,28.72,NE,45,1.6,1.6,83,0.00,CLR,,0.04,WeatherDisplay:10.37,2013-12-29 00:37:00,
2013-12-28 18:42:00,30.6,26.0,28.72,NE,45,1.1,0.0,83,0.00,CLR,,0.04,WeatherDisplay:10.37,2013-12-29 00:42:00,
2013-12-28 18:47:00,30.0,25.5,28.72,NW,315,1.1,0.0,83,0.00,CLR,,0.04,WeatherDisplay:10.37,2013-12-29 00:47:00,
2013-12-28 18:52:00,29.3,24.8,28.72,NW,315,1.1,1.1,83,0.00,CLR,,0.04,WeatherDisplay:10.37,2013-12-29 00:52:00,
2013-12-28 18:57:00,28.9,25.0,28.72,North,0,3.5,3.5,85,0.00,CLR,,0.04,WeatherDisplay:10.37,2013-12-29 00:57:00,
2013-12-28 19:02:00,28.8,25.1,28.72,North,0,3.5,3.5,86,0.00,CLR,,0.04,WeatherDisplay:10.37,2013-12-29 01:02:00,
2013-12-28 19:07:00,28.6,25.5,28.72,North,0,2.3,2.3,88,0.00,CLR,,0.04,WeatherDisplay:10.37,2013-12-29 01:07:00,
2013-12-28 19:12:00,28.4,25.3,28.73,North,0,2.2,2.2,88,0.00,CLR,,0.04,WeatherDisplay:10.37,2013-12-29 01:12:00,
2013-12-28 19:17:00,28.2,25.7,28.73,North,0,1.1,1.1,90,0.00,CLR,,0.04,WeatherDisplay:10.37,2013-12-29 01:17:00,
2013-12-28 19:22:00,28.0,25.5,28.72,North,0,1.1,1.1,90,0.00,CLR,,0.04,WeatherDisplay:10.37,2013-12-29 01:22:00,
2013-12-28 19:27:00,27.7,25.1,28.72,North,0,1.1,0.0,90,0.00,CLR,,0.04,WeatherDisplay:10.37,2013-12-29 01:27:00,
2013-12-28 19:32:00,27.3,24.8,28.72,North,0,1.1,1.1,90,0.00,CLR,,0.04,WeatherDisplay:10.37,2013-12-29 01:32:00,
2013-12-28 19:37:00,27.1,24.6,28.73,NW,315,1.1,1.1,90,0.00,CLR,,0.04,WeatherDisplay:10.37,2013-12-29 01:37:00,
2013-12-28 19:42:00,27.0,24.7,28.73,North,0,1.1,1.1,91,0.00,CLR,,0.04,WeatherDisplay:10.37,2013-12-29 01:42:00,
2013-12-28 19:47:00,26.4,24.1,28.73,NW,315,2.3,2.3,91,0.00,CLR,,0.04,WeatherDisplay:10.37,2013-12-29 01:47:00,
2013-12-28 19:52:00,26.2,24.0,28.73,NW,315,1.1,1.1,91,0.00,CLR,,0.04,WeatherDisplay:10.37,2013-12-29 01:52:00,
2013-12-28 19:57:00,26.1,23.8,28.73,NW,315,2.3,2.3,91,0.00,CLR,,0.04,WeatherDisplay:10.37,2013-12-29 01:57:00,
2013-12-28 20:02:00,25.5,23.3,28.72,North,0,1.1,1.1,91,0.00,CLR,,0.04,WeatherDisplay:10.37,2013-12-29 02:02:00,
2013-12-28 20:07:00,25.7,23.7,28.73,NW,315,2.3,2.3,92,0.00,CLR,,0.04,WeatherDisplay:10.37,2013-12-29 02:07:00,
2013-12-28 20:12:00,25.5,23.5,28.73,NW,315,1.1,1.1,92,0.00,CLR,,0.04,WeatherDisplay:10.37,2013-12-29 02:12:00,
2013-12-28 20:17:00,26.2,24.7,28.73,NNW,338,8.1,8.1,94,0.00,CLR,,0.04,WeatherDisplay:10.37,2013-12-29 02:17:00,
2013-12-28 20:22:00,27.0,25.7,28.74,NW,315,9.2,9.2,95,0.00,CLR,,0.04,WeatherDisplay:10.37,2013-12-29 02:22:00,
2013-12-28 20:27:00,27.7,26.7,28.74,NW,315,5.8,5.8,96,0.00,CLR,,0.04,WeatherDisplay:10.37,2013-12-29 02:27:00,
2013-12-28 20:32:00,28.0,27.0,28.74,WNW,292,8.1,8.1,96,0.00,CLR,,0.04,WeatherDisplay:10.37,2013-12-29 02:32:00,
2013-12-28 20:37:00,27.7,26.7,28.74,NW,315,5.8,5.8,96,0.00,CLR,,0.04,WeatherDisplay:10.37,2013-12-29 02:37:00,
2013-12-28 20:42:00,27.9,26.9,28.75,NW,315,8.1,8.1,96,0.00,CLR,,0.04,WeatherDisplay:10.37,2013-12-29 02:42:00,
2013-12-28 20:47:00,27.7,26.7,28.75,NW,315,8.1,8.1,96,0.00,CLR,,0.04,WeatherDisplay:10.37,2013-12-29 02:47:00,
2013-12-28 20:52:00,27.5,26.5,28.75,NW,315,5.8,5.8,96,0.00,CLR,,0.04,WeatherDisplay:10.37,2013-12-29 02:52:00,
2013-12-28 20:57:00,27.7,26.9,28.75,North,0,5.8,5.8,97,0.00,CLR,,0.04,WeatherDisplay:10.37,2013-12-29 02:57:00,
2013-12-28 21:02:00,28.0,27.3,28.76,NW,315,6.9,6.9,97,0.00,CLR,,0.04,WeatherDisplay:10.37,2013-12-29 03:02:00,
2013-12-28 21:07:00,28.4,27.7,28.76,North,0,3.5,3.5,97,0.00,CLR,,0.04,WeatherDisplay:10.37,2013-12-29 03:07:00,
2013-12-28 21:12:00,28.6,27.8,28.75,NE,45,5.8,5.8,97,0.00,CLR,,0.04,WeatherDisplay:10.37,2013-12-29 03:12:00,
2013-12-28 21:17:00,28.9,28.4,28.75,North,0,3.5,3.5,98,0.00,CLR,,0.04,WeatherDisplay:10.37,2013-12-29 03:17:00,
2013-12-28 21:22:00,29.1,28.6,28.76,NW,315,5.8,5.8,98,0.00,CLR,,0.04,WeatherDisplay:10.37,2013-12-29 03:22:00,
2013-12-28 21:27:00,29.5,29.0,28.76,NW,315,5.8,5.8,98,0.00,CLR,,0.04,WeatherDisplay:10.37,2013-12-29 03:27:00,
2013-12-28 21:32:00,29.7,28.9,28.76,NW,315,5.8,5.8,97,0.00,CLR,,0.04,WeatherDisplay:10.37,2013-12-29 03:32:00,
2013-12-28 21:37:00,30.2,29.2,28.76,NW,315,6.0,6.0,96,0.00,CLR,,0.04,WeatherDisplay:10.37,2013-12-29 03:37:00,
2013-12-28 21:42:00,30.6,29.6,28.76,NNW,338,8.1,8.1,96,0.00,CLR,,0.04,WeatherDisplay:10.37,2013-12-29 03:42:00,
2013-12-28 21:47:00,30.9,29.9,28.76,NW,315,6.9,6.9,96,0.00,CLR,,0.04,WeatherDisplay:10.37,2013-12-29 03:47:00,
2013-12-28 21:52:00,31.3,30.3,28.77,NW,315,6.9,6.9,96,0.00,CLR,,0.04,WeatherDisplay:10.37,2013-12-29 03:52:00,
2013-12-28 21:57:00,31.6,30.4,28.77,NW,315,10.4,10.4,95,0.00,CLR,,0.04,WeatherDisplay:10.37,2013-12-29 03:57:00,
2013-12-28 22:02:00,32.0,30.5,28.77,North,0,8.1,8.1,94,0.00,CLR,,0.04,WeatherDisplay:10.37,2013-12-29 04:02:00,
2013-12-28 22:07:00,32.2,30.1,28.77,NNW,338,5.8,5.8,92,0.00,CLR,,0.04,WeatherDisplay:10.37,2013-12-29 04:07:00,
2013-12-28 22:12:00,32.4,30.0,28.78,NW,315,11.5,11.5,91,0.00,CLR,,0.04,WeatherDisplay:10.37,2013-12-29 04:12:00,
2013-12-28 22:17:00,32.4,30.0,28.78,NW,315,15.0,15.0,91,0.00,CLR,,0.04,WeatherDisplay:10.37,2013-12-29 04:17:00,
2013-12-28 22:22:00,32.2,30.1,28.79,WNW,292,11.5,11.5,92,0.00,CLR,,0.04,WeatherDisplay:10.37,2013-12-29 04:22:00,
2013-12-28 22:27:00,32.0,29.9,28.80,North,0,16.1,16.1,92,0.00,CLR,,0.04,WeatherDisplay:10.37,2013-12-29 04:27:00,
2013-12-28 22:32:00,31.5,29.9,28.80,North,0,12.7,12.7,94,0.00,CLR,,0.04,WeatherDisplay:10.37,2013-12-29 04:32:00,
2013-12-28 22:37:00,31.6,30.1,28.80,NW,315,11.5,11.5,94,0.00,CLR,,0.04,WeatherDisplay:10.37,2013-12-29 04:37:00,
2013-12-28 22:42:00,31.1,29.6,28.80,North,0,19.6,19.6,94,0.07,RA,,0.11,WeatherDisplay:10.37,2013-12-29 04:42:00,
2013-12-28 22:47:00,31.1,29.0,28.81,NW,315,16.1,16.1,92,0.13,RA,,0.17,WeatherDisplay:10.37,2013-12-29 04:47:00,
2013-12-28 22:52:00,30.9,29.1,28.81,NW,315,10.4,10.4,93,0.13,RA,,0.17,WeatherDisplay:10.37,2013-12-29 04:52:00,
2013-12-28 22:57:00,29.8,28.1,28.81,North,0,23.0,23.0,93,0.38,RA,,0.41,WeatherDisplay:10.37,2013-12-29 04:57:00,
2013-12-28 23:01:00,29.5,27.7,28.82,NW,315,19.6,19.6,93,0.38,RA,,0.41,WeatherDisplay:10.37,2013-12-29 05:01:00,
2013-12-28 23:02:00,28.9,27.2,28.82,North,0,15.0,15.0,93,0.38,RA,,0.41,WeatherDisplay:10.37,2013-12-29 05:02:00,
2013-12-28 23:07:00,29.1,27.1,28.82,North,0,15.0,15.0,92,0.38,CLR,,0.41,WeatherDisplay:10.37,2013-12-29 05:07:00,
2013-12-28 23:12:00,29.1,27.1,28.83,North,0,15.0,15.0,92,0.38,CLR,,0.41,WeatherDisplay:10.37,2013-12-29 05:12:00,
2013-12-28 23:17:00,28.2,25.7,28.83,North,0,11.5,11.5,90,0.38,CLR,,0.41,WeatherDisplay:10.37,2013-12-29 05:17:00,
2013-12-28 23:22:00,27.7,24.9,28.84,NNW,338,19.6,19.6,89,0.38,CLR,,0.41,WeatherDisplay:10.37,2013-12-29 05:22:00,
2013-12-28 23:27:00,27.1,24.1,28.84,North,0,15.0,15.0,88,0.38,CLR,,0.41,WeatherDisplay:10.37,2013-12-29 05:27:00,
2013-12-28 23:32:00,26.8,23.7,28.84,North,0,17.3,17.3,88,0.38,CLR,,0.41,WeatherDisplay:10.37,2013-12-29 05:32:00,
2013-12-28 23:37:00,26.4,23.3,28.84,North,0,11.5,11.5,88,0.37,CLR,,0.41,WeatherDisplay:10.37,2013-12-29 05:37:00,
2013-12-28 23:42:00,26.1,22.7,28.84,North,0,20.7,20.7,87,0.31,CLR,,0.41,WeatherDisplay:10.37,2013-12-29 05:42:00,
2013-12-28 23:47:00,25.9,22.5,28.84,North,0,12.7,12.7,87,0.25,CLR,,0.41,WeatherDisplay:10.37,2013-12-29 05:47:00,
2013-12-28 23:52:00,25.7,22.4,28.85,North,0,12.7,12.7,87,0.00,CLR,,0.41,WeatherDisplay:10.37,2013-12-29 05:52:00,
2013-12-28 23:57:00,25.5,22.2,28.85,NW,315,13.8,13.8,87,0.00,CLR,,0.41,WeatherDisplay:10.37,2013-12-29 05:57:00,